Station Historical Data
Daily Summary for March 9, 2017 Units:  English    Metric   Both
Next Day »
Daily Weekly Monthly Yearly Custom
  High: Low: Average:
Temperature: 63.1 °F 45.1 °F 53.3 °F
Dew Point: 52.4 °F 40.3 °F 46.4 °F
Humidity: 88% 59% 78%
Wind Speed: 11.0mph 0.0mph 0.7mph
Wind Gust: 12.0mph - -
Wind- - South
Pressure: 30.29 in 30.20 in -
Precipitation: 0.00 in    
Historical Graphs
 
 
Tabular Data for March 9, 2017
Time Temperature Dew Point Pressure Wind Wind Speed Wind Gust Humidity Rainfall Rate (Hourly) solar Conditions
00:00 46.5 °F 42.5 °F 30.29 in Calm     86% 0.00 in 0.00 W/m2
00:05 46.5 °F 42.5 °F 30.29 in Calm     86% 0.00 in 0.00 W/m2
00:10 46.4 °F 42.5 °F 30.28 in Calm     86% 0.00 in 0.00 W/m2
00:15 46.3 °F 42.3 °F 30.28 in Calm     86% 0.00 in 0.00 W/m2
00:20 46.2 °F 42.2 °F 30.28 in Calm     86% 0.00 in 0.00 W/m2
00:25 46.1 °F 42.2 °F 30.28 in Calm     86% 0.00 in 0.00 W/m2
00:30 46.1 °F 42.2 °F 30.28 in Calm     86% 0.00 in 0.00 W/m2
00:35 46.0 °F 42.0 °F 30.28 in Calm   5.0 mph 86% 0.00 in 0.00 W/m2
00:40 46.0 °F 42.0 °F 30.28 in ESE 1.0 mph 4.0 mph 86% 0.00 in 0.00 W/m2
00:45 45.9 °F 42.0 °F 30.28 in ESE 1.0 mph 4.0 mph 86% 0.00 in 0.00 W/m2
00:50 45.8 °F 41.9 °F 30.28 in Calm   2.0 mph 86% 0.00 in 0.00 W/m2
00:55 45.7 °F 41.8 °F 30.28 in Calm   2.0 mph 86% 0.00 in 0.00 W/m2
01:00 45.6 °F 41.7 °F 30.28 in ESE 1.0 mph 4.0 mph 86% 0.00 in 0.00 W/m2
01:05 45.5 °F 41.6 °F 30.28 in ESE 1.0 mph 2.0 mph 86% 0.00 in 0.00 W/m2
01:10 45.3 °F 41.4 °F 30.28 in Calm   2.0 mph 86% 0.00 in 0.00 W/m2
01:15 45.2 °F 41.3 °F 30.28 in East 4.0 mph 4.0 mph 86% 0.00 in 0.00 W/m2
01:20 45.2 °F 41.3 °F 30.28 in ENE 1.0 mph 5.0 mph 86% 0.00 in 0.00 W/m2
01:25 45.2 °F 41.6 °F 30.28 in ENE 2.0 mph 3.0 mph 87% 0.00 in 0.00 W/m2
01:30 45.2 °F 41.6 °F 30.27 in ENE 1.0 mph 4.0 mph 87% 0.00 in 0.00 W/m2
01:35 45.2 °F 41.6 °F 30.27 in Calm   3.0 mph 87% 0.00 in 0.00 W/m2
01:40 45.1 °F 41.5 °F 30.27 in ENE 2.0 mph 4.0 mph 87% 0.00 in 0.00 W/m2
01:45 45.2 °F 41.6 °F 30.27 in ENE 1.0 mph 5.0 mph 87% 0.00 in 0.00 W/m2
01:50 45.1 °F 41.5 °F 30.26 in Calm   1.0 mph 87% 0.00 in 0.00 W/m2
01:55 45.1 °F 41.5 °F 30.26 in ENE 4.0 mph 4.0 mph 87% 0.00 in 0.00 W/m2
02:00 45.1 °F 41.2 °F 30.26 in Calm   6.0 mph 86% 0.00 in 0.00 W/m2
02:05 45.1 °F 41.2 °F 30.26 in East 2.0 mph 5.0 mph 86% 0.00 in 0.00 W/m2
02:10 45.1 °F 41.2 °F 30.25 in East 4.0 mph 9.0 mph 86% 0.00 in 0.00 W/m2
02:15 45.1 °F 41.2 °F 30.25 in East 2.0 mph 4.0 mph 86% 0.00 in 0.00 W/m2
02:20 45.2 °F 41.3 °F 30.25 in ESE 1.0 mph 4.0 mph 86% 0.00 in 0.00 W/m2
02:25 45.2 °F 41.0 °F 30.25 in Calm   4.0 mph 85% 0.00 in 0.00 W/m2
02:30 45.2 °F 41.0 °F 30.25 in ESE 1.0 mph 5.0 mph 85% 0.00 in 0.00 W/m2
02:35 45.2 °F 41.0 °F 30.25 in ESE 2.0 mph 4.0 mph 85% 0.00 in 0.00 W/m2
02:40 45.2 °F 40.7 °F 30.25 in ESE 2.0 mph 6.0 mph 84% 0.00 in 0.00 W/m2
02:45 45.3 °F 40.8 °F 30.24 in ESE 2.0 mph 5.0 mph 84% 0.00 in 0.00 W/m2
02:50 45.3 °F 40.8 °F 30.24 in Calm   2.0 mph 84% 0.00 in 0.00 W/m2
02:55 45.4 °F 40.9 °F 30.24 in Calm   5.0 mph 84% 0.00 in 0.00 W/m2
03:00 45.4 °F 40.9 °F 30.24 in Calm   2.0 mph 84% 0.00 in 0.00 W/m2
03:05 45.4 °F 40.9 °F 30.24 in Calm   4.0 mph 84% 0.00 in 0.00 W/m2
03:10 45.4 °F 40.9 °F 30.24 in Calm   2.0 mph 84% 0.00 in 0.00 W/m2
03:15 45.5 °F 40.7 °F 30.24 in Calm   4.0 mph 83% 0.00 in 0.00 W/m2
03:20 45.5 °F 41.0 °F 30.23 in Calm   2.0 mph 84% 0.00 in 0.00 W/m2
03:25 45.5 °F 40.7 °F 30.23 in East 1.0 mph 5.0 mph 83% 0.00 in 0.00 W/m2
03:30 45.5 °F 40.7 °F 30.24 in East 2.0 mph 5.0 mph 83% 0.00 in 0.00 W/m2
03:35 45.5 °F 40.7 °F 30.23 in East 1.0 mph 4.0 mph 83% 0.00 in 0.00 W/m2
03:40 45.5 °F 40.7 °F 30.23 in Calm   5.0 mph 83% 0.00 in 0.00 W/m2
03:45 45.5 °F 40.7 °F 30.23 in East 1.0 mph 2.0 mph 83% 0.00 in 0.00 W/m2
03:50 45.5 °F 40.7 °F 30.23 in East 1.0 mph 2.0 mph 83% 0.00 in 0.00 W/m2
03:55 45.5 °F 40.7 °F 30.23 in Calm   2.0 mph 83% 0.00 in 0.00 W/m2
04:00 45.4 °F 40.5 °F 30.23 in Calm   4.0 mph 83% 0.00 in 0.00 W/m2
04:05 45.4 °F 40.5 °F 30.23 in East 1.0 mph 4.0 mph 83% 0.00 in 0.00 W/m2
04:10 45.4 °F 40.5 °F 30.23 in East 1.0 mph 5.0 mph 83% 0.00 in 0.00 W/m2
04:15 45.4 °F 40.5 °F 30.23 in Calm   5.0 mph 83% 0.00 in 0.00 W/m2
04:20 45.4 °F 40.5 °F 30.23 in Calm   4.0 mph 83% 0.00 in 0.00 W/m2
04:25 45.4 °F 40.5 °F 30.23 in Calm   4.0 mph 83% 0.00 in 0.00 W/m2
04:31 45.4 °F 40.5 °F 30.24 in East 2.0 mph 4.0 mph 83% 0.00 in 0.00 W/m2
04:36 45.5 °F 40.7 °F 30.23 in Calm   2.0 mph 83% 0.00 in 0.00 W/m2
04:41 45.4 °F 40.5 °F 30.23 in Calm   2.0 mph 83% 0.00 in 0.00 W/m2
04:46 45.4 °F 40.5 °F 30.23 in Calm     83% 0.00 in 0.00 W/m2
04:51 45.4 °F 40.5 °F 30.23 in Calm   4.0 mph 83% 0.00 in 0.00 W/m2
04:56 45.4 °F 40.5 °F 30.23 in Calm   2.0 mph 83% 0.00 in 0.00 W/m2
05:01 45.4 °F 40.5 °F 30.23 in East 2.0 mph 5.0 mph 83% 0.00 in 0.00 W/m2
05:06 45.4 °F 40.5 °F 30.23 in Calm   5.0 mph 83% 0.00 in 0.00 W/m2
05:11 45.4 °F 40.5 °F 30.23 in Calm   6.0 mph 83% 0.00 in 0.00 W/m2
05:16 45.4 °F 40.5 °F 30.23 in Calm   5.0 mph 83% 0.00 in 0.00 W/m2
05:21 45.4 °F 40.5 °F 30.23 in ESE 1.0 mph 6.0 mph 83% 0.00 in 0.00 W/m2
05:26 45.3 °F 40.5 °F 30.23 in Calm   5.0 mph 83% 0.00 in 0.00 W/m2
05:31 45.4 °F 40.5 °F 30.23 in Calm   4.0 mph 83% 0.00 in 0.00 W/m2
05:36 45.4 °F 40.5 °F 30.23 in Calm   11.0 mph 83% 0.00 in 0.00 W/m2
05:41 45.4 °F 40.5 °F 30.23 in ESE 1.0 mph 4.0 mph 83% 0.00 in 0.00 W/m2
05:46 45.4 °F 40.5 °F 30.24 in Calm   1.0 mph 83% 0.00 in 0.00 W/m2
05:51 45.4 °F 40.5 °F 30.24 in Calm   1.0 mph 83% 0.00 in 0.00 W/m2
05:56 45.5 °F 40.7 °F 30.24 in Calm     83% 0.00 in 0.00 W/m2
06:01 45.5 °F 40.7 °F 30.24 in Calm     83% 0.00 in 0.00 W/m2
06:06 45.5 °F 40.7 °F 30.23 in Calm     83% 0.00 in 0.00 W/m2
06:11 45.4 °F 40.5 °F 30.23 in Calm     83% 0.00 in 0.00 W/m2
06:12 45.4 °F 40.5 °F 30.23 in Calm     83% 0.00 in 0.00 W/m2
06:17 45.4 °F 40.5 °F 30.23 in Calm     83% 0.00 in 0.00 W/m2
06:22 45.4 °F 40.5 °F 30.24 in Calm     83% 0.00 in 5.00 W/m2
06:27 45.3 °F 40.5 °F 30.24 in Calm     83% 0.00 in 7.00 W/m2
06:32 45.3 °F 40.5 °F 30.23 in Calm     83% 0.00 in 11.00 W/m2
06:37 45.3 °F 40.5 °F 30.23 in Calm     83% 0.00 in 12.00 W/m2
06:42 45.2 °F 40.3 °F 30.24 in Calm     83% 0.00 in 16.00 W/m2
06:47 45.2 °F 40.3 °F 30.24 in ESE 4.0 mph 4.0 mph 83% 0.00 in 21.00 W/m2
06:52 45.2 °F 40.3 °F 30.24 in ESE 1.0 mph 4.0 mph 83% 0.00 in 30.00 W/m2
06:57 45.3 °F 40.5 °F 30.24 in ESE 1.0 mph 6.0 mph 83% 0.00 in 42.00 W/m2
07:02 45.3 °F 40.5 °F 30.24 in ESE 4.0 mph 4.0 mph 83% 0.00 in 60.00 W/m2
07:07 45.3 °F 40.5 °F 30.24 in ESE 1.0 mph 5.0 mph 83% 0.00 in 74.00 W/m2
07:12 45.5 °F 40.7 °F 30.24 in ESE 5.0 mph 5.0 mph 83% 0.00 in 93.00 W/m2
07:17 45.5 °F 40.7 °F 30.24 in ESE 1.0 mph 6.0 mph 83% 0.00 in 113.00 W/m2
07:22 45.7 °F 40.8 °F 30.24 in ESE 1.0 mph 4.0 mph 83% 0.00 in 135.00 W/m2
07:27 45.8 °F 40.9 °F 30.24 in ESE 4.0 mph 5.0 mph 83% 0.00 in 158.00 W/m2
07:32 46.0 °F 41.1 °F 30.24 in Calm   4.0 mph 83% 0.00 in 179.00 W/m2
07:37 46.2 °F 41.3 °F 30.24 in ESE 2.0 mph 2.0 mph 83% 0.00 in 207.00 W/m2
07:42 46.3 °F 41.4 °F 30.24 in ESE 1.0 mph 4.0 mph 83% 0.00 in 232.00 W/m2
07:47 46.6 °F 41.7 °F 30.24 in Calm     83% 0.00 in 253.00 W/m2
07:48 46.6 °F 41.7 °F 30.24 in Calm     83% 0.00 in 257.00 W/m2
07:53 47.0 °F 42.1 °F 30.24 in Calm     83% 0.00 in 278.00 W/m2
07:58 47.2 °F 42.6 °F 30.24 in Calm     84% 0.00 in 288.00 W/m2
08:03 47.4 °F 42.8 °F 30.24 in ESE 1.0 mph 4.0 mph 84% 0.00 in 306.00 W/m2
08:08 47.6 °F 43.0 °F 30.25 in Calm   2.0 mph 84% 0.00 in 332.00 W/m2
08:13 47.8 °F 43.2 °F 30.25 in Calm     84% 0.00 in 343.00 W/m2
08:18 48.1 °F 43.5 °F 30.25 in Calm     84% 0.00 in 336.00 W/m2
08:23 48.5 °F 43.9 °F 30.25 in Calm     84% 0.00 in 322.00 W/m2
08:28 48.9 °F 44.3 °F 30.25 in Calm     84% 0.00 in 392.00 W/m2
08:29 49.0 °F 44.4 °F 30.25 in Calm     84% 0.00 in 396.00 W/m2
08:33 49.4 °F 44.5 °F 30.25 in Calm     83% 0.00 in 415.00 W/m2
08:38 49.7 °F 45.1 °F 30.25 in Calm     84% 0.00 in 425.00 W/m2
08:43 50.0 °F 45.0 °F 30.25 in Calm     83% 0.00 in 441.00 W/m2
08:48 50.3 °F 45.0 °F 30.25 in Calm     82% 0.00 in 455.00 W/m2
08:54 50.5 °F 45.2 °F 30.25 in Calm     82% 0.00 in 475.00 W/m2
08:59 50.9 °F 45.0 °F 30.25 in ESE 1.0 mph 2.0 mph 80% 0.00 in 492.00 W/m2
09:02 51.3 °F 44.7 °F 30.25 in ESE 2.0 mph 2.0 mph 78% 0.00 in 503.00 W/m2
09:07 52.1 °F 44.8 °F 30.25 in Calm     76% 0.00 in 522.00 W/m2
09:12 53.2 °F 44.4 °F 30.25 in ESE 1.0 mph 2.0 mph 72% 0.00 in 543.00 W/m2
09:16 54.1 °F 45.3 °F 30.25 in ESE 1.0 mph 1.0 mph 72% 0.00 in 552.00 W/m2
09:20 54.6 °F 45.4 °F 30.25 in Calm   4.0 mph 71% 0.00 in 506.00 W/m2
09:25 55.3 °F 46.8 °F 30.25 in Calm   4.0 mph 73% 0.00 in 534.00 W/m2
09:30 55.9 °F 46.3 °F 30.25 in ESE 1.0 mph 5.0 mph 70% 0.00 in 550.00 W/m2
09:35 56.4 °F 47.1 °F 30.25 in ENE 5.0 mph 5.0 mph 71% 0.00 in 564.00 W/m2
09:40 56.9 °F 46.5 °F 30.24 in NNE 1.0 mph 3.0 mph 68% 0.00 in 555.00 W/m2
09:45 57.3 °F 47.2 °F 30.24 in NNW 1.0 mph 6.0 mph 69% 0.00 in 587.00 W/m2
09:50 57.6 °F 45.5 °F 30.24 in NNW 1.0 mph 4.0 mph 64% 0.00 in 605.00 W/m2
09:55 58.1 °F 46.4 °F 30.24 in NNW 2.0 mph 4.0 mph 65% 0.00 in 649.00 W/m2
10:00 58.4 °F 47.9 °F 30.24 in NNW 1.0 mph 3.0 mph 68% 0.00 in 657.00 W/m2
10:05 58.4 °F 46.7 °F 30.24 in NNW 2.0 mph 4.0 mph 65% 0.00 in 673.00 W/m2
10:10 58.7 °F 47.8 °F 30.24 in NW 4.0 mph 5.0 mph 67% 0.00 in 661.00 W/m2
10:15 59.1 °F 47.0 °F 30.24 in North 3.0 mph 7.0 mph 64% 0.00 in 700.00 W/m2
10:20 59.6 °F 48.2 °F 30.24 in NW 3.0 mph 6.0 mph 66% 0.00 in 701.00 W/m2
10:25 60.0 °F 47.4 °F 30.24 in NW 2.0 mph 5.0 mph 63% 0.00 in 693.00 W/m2
10:30 60.3 °F 45.9 °F 30.24 in Calm   4.0 mph 59% 0.00 in 738.00 W/m2
10:32 60.5 °F 47.4 °F 30.24 in NNW 2.0 mph 3.0 mph 62% 0.00 in 733.00 W/m2
10:33 60.6 °F 47.5 °F 30.24 in Calm   3.0 mph 62% 0.00 in 733.00 W/m2
10:34 60.7 °F 47.6 °F 30.24 in NNW 1.0 mph 3.0 mph 62% 0.00 in 763.00 W/m2
10:38 60.9 °F 48.2 °F 30.24 in Calm   1.0 mph 63% 0.00 in 779.00 W/m2
10:39 61.0 °F 48.3 °F 30.24 in NW 3.0 mph 3.0 mph 63% 0.00 in 779.00 W/m2
10:43 61.2 °F 47.2 °F 30.24 in NNW 5.0 mph 8.0 mph 60% 0.00 in 763.00 W/m2
10:45 61.4 °F 47.0 °F 30.24 in Calm   8.0 mph 59% 0.00 in 759.00 W/m2
10:50 61.7 °F 47.2 °F 30.24 in Calm   8.0 mph 59% 0.00 in 680.00 W/m2
10:55 62.1 °F 48.5 °F 30.24 in Calm   6.0 mph 61% 0.00 in 819.00 W/m2
11:00 62.4 °F 49.2 °F 30.24 in Calm   6.0 mph 62% 0.00 in 777.00 W/m2
11:05 62.7 °F 48.6 °F 30.24 in WNW 4.0 mph 6.0 mph 60% 0.00 in 717.00 W/m2
11:10 62.9 °F 48.4 °F 30.24 in Calm   5.0 mph 59% 0.00 in 795.00 W/m2
11:15 63.1 °F 49.0 °F 30.23 in Calm   7.0 mph 60% 0.00 in 643.00 W/m2
11:20 63.0 °F 48.5 °F 30.23 in WNW 1.0 mph 5.0 mph 59% 0.00 in 401.00 W/m2
11:25 62.9 °F 48.8 °F 30.24 in NW 1.0 mph 6.0 mph 60% 0.00 in 701.00 W/m2
11:30 62.8 °F 49.2 °F 30.23 in WNW 2.0 mph 6.0 mph 61% 0.00 in 759.00 W/m2
11:35 62.9 °F 49.3 °F 30.24 in WNW 2.0 mph 7.0 mph 61% 0.00 in 640.00 W/m2
11:40 62.9 °F 49.3 °F 30.23 in NW 4.0 mph 8.0 mph 61% 0.00 in 772.00 W/m2
11:45 63.1 °F 49.9 °F 30.23 in NW 6.0 mph 8.0 mph 62% 0.00 in 671.00 W/m2
11:50 63.1 °F 49.9 °F 30.23 in Calm   8.0 mph 62% 0.00 in 589.00 W/m2
11:55 63.0 °F 50.7 °F 30.23 in Calm   6.0 mph 64% 0.00 in 552.00 W/m2
12:00 62.9 °F 49.7 °F 30.23 in NW 1.0 mph 7.0 mph 62% 0.00 in 371.00 W/m2
12:05 62.7 °F 49.9 °F 30.23 in Calm   7.0 mph 63% 0.00 in 497.00 W/m2
12:10 62.6 °F 50.7 °F 30.23 in WNW 1.0 mph 9.0 mph 65% 0.00 in 696.00 W/m2
12:15 62.5 °F 50.6 °F 30.23 in Calm   12.0 mph 65% 0.00 in 766.00 W/m2
12:20 62.4 °F 50.5 °F 30.23 in Calm   8.0 mph 65% 0.00 in 675.00 W/m2
12:25 62.4 °F 51.3 °F 30.23 in Calm   9.0 mph 67% 0.00 in 773.00 W/m2
12:30 62.5 °F 51.4 °F 30.23 in NW 3.0 mph 7.0 mph 67% 0.00 in 744.00 W/m2
12:35 62.5 °F 51.0 °F 30.22 in NW 2.0 mph 7.0 mph 66% 0.00 in 735.00 W/m2
12:40 62.5 °F 51.4 °F 30.22 in WNW 1.0 mph 7.0 mph 67% 0.00 in 745.00 W/m2
12:45 62.5 °F 51.4 °F 30.22 in Calm   6.0 mph 67% 0.00 in 788.00 W/m2
12:50 62.6 °F 51.1 °F 30.22 in Calm   8.0 mph 66% 0.00 in 580.00 W/m2
12:55 62.6 °F 51.1 °F 30.22 in SW 8.0 mph 9.0 mph 66% 0.00 in 622.00 W/m2
13:06 62.5 °F 51.4 °F 30.22 in NW 1.0 mph 6.0 mph 67% 0.00 in 501.00 W/m2
13:07 62.5 °F 51.0 °F 30.22 in Calm   1.0 mph 66% 0.00 in 515.00 W/m2
13:12 62.3 °F 51.2 °F 30.23 in Calm   2.0 mph 67% 0.00 in 555.00 W/m2
13:17 62.1 °F 51.0 °F 30.22 in NW 11.0 mph 11.0 mph 67% 0.00 in 564.00 W/m2
13:22 61.9 °F 50.8 °F 30.22 in NW 2.0 mph 3.0 mph 67% 0.00 in 492.00 W/m2
13:27 61.7 °F 50.6 °F 30.22 in NW 1.0 mph 3.0 mph 67% 0.00 in 487.00 W/m2
13:32 61.6 °F 51.0 °F 30.22 in Calm     68% 0.00 in 591.00 W/m2
13:37 61.5 °F 50.5 °F 30.22 in Calm   2.0 mph 67% 0.00 in 403.00 W/m2
13:42 61.4 °F 50.4 °F 30.22 in Calm     67% 0.00 in 599.00 W/m2
13:47 61.5 °F 50.5 °F 30.22 in Calm     67% 0.00 in 492.00 W/m2
13:52 61.5 °F 50.0 °F 30.22 in Calm     66% 0.00 in 504.00 W/m2
13:57 61.6 °F 49.7 °F 30.22 in Calm   1.0 mph 65% 0.00 in 613.00 W/m2
14:02 61.7 °F 50.2 °F 30.22 in Calm     66% 0.00 in 527.00 W/m2
14:07 61.8 °F 49.9 °F 30.22 in Calm   1.0 mph 65% 0.00 in 464.00 W/m2
14:12 61.8 °F 49.5 °F 30.22 in Calm   1.0 mph 64% 0.00 in 397.00 W/m2
14:17 61.8 °F 49.1 °F 30.22 in Calm     63% 0.00 in 664.00 W/m2
14:22 61.9 °F 49.2 °F 30.22 in Calm   2.0 mph 63% 0.00 in 420.00 W/m2
14:27 61.9 °F 49.2 °F 30.22 in Calm   1.0 mph 63% 0.00 in 517.00 W/m2
14:32 62.0 °F 50.1 °F 30.22 in Calm   2.0 mph 65% 0.00 in 575.00 W/m2
14:37 62.0 °F 50.1 °F 30.22 in West 2.0 mph 6.0 mph 65% 0.00 in 446.00 W/m2
14:42 62.1 °F 50.2 °F 30.22 in Calm   1.0 mph 65% 0.00 in 413.00 W/m2
14:47 62.2 °F 50.3 °F 30.21 in Calm   1.0 mph 65% 0.00 in 513.00 W/m2
14:52 62.2 °F 50.3 °F 30.21 in WNW 1.0 mph 2.0 mph 65% 0.00 in 545.00 W/m2
14:57 62.2 °F 49.9 °F 30.22 in Calm   1.0 mph 64% 0.00 in 573.00 W/m2
15:02 62.3 °F 51.2 °F 30.22 in Calm     67% 0.00 in 515.00 W/m2
15:07 62.4 °F 50.9 °F 30.21 in West 5.0 mph 7.0 mph 66% 0.00 in 494.00 W/m2
15:12 62.5 °F 51.0 °F 30.21 in West 5.0 mph 8.0 mph 66% 0.00 in 334.00 W/m2
15:17 62.5 °F 51.0 °F 30.21 in Calm     66% 0.00 in 236.00 W/m2
15:22 62.3 °F 51.2 °F 30.21 in Calm     67% 0.00 in 397.00 W/m2
15:27 62.3 °F 50.8 °F 30.21 in Calm   6.0 mph 66% 0.00 in 392.00 W/m2
15:32 62.2 °F 51.1 °F 30.21 in Calm     67% 0.00 in 309.00 W/m2
15:37 62.2 °F 50.7 °F 30.21 in Calm     66% 0.00 in 295.00 W/m2
15:43 62.2 °F 50.7 °F 30.22 in Calm   2.0 mph 66% 0.00 in 241.00 W/m2
15:48 62.1 °F 51.4 °F 30.22 in Calm   7.0 mph 68% 0.00 in 260.00 W/m2
15:53 62.0 °F 51.3 °F 30.21 in Calm     68% 0.00 in 255.00 W/m2
15:58 61.8 °F 51.5 °F 30.22 in Calm   2.0 mph 69% 0.00 in 330.00 W/m2
16:03 61.7 °F 51.8 °F 30.21 in Calm     70% 0.00 in 318.00 W/m2
16:08 61.6 °F 51.3 °F 30.21 in Calm     69% 0.00 in 348.00 W/m2
16:13 61.6 °F 51.7 °F 30.21 in Calm     70% 0.00 in 285.00 W/m2
16:18 61.5 °F 51.2 °F 30.21 in Calm     69% 0.00 in 190.00 W/m2
16:23 61.4 °F 51.5 °F 30.21 in Calm     70% 0.00 in 188.00 W/m2
16:28 61.3 °F 51.1 °F 30.20 in Calm     69% 0.00 in 213.00 W/m2
16:33 61.2 °F 51.0 °F 30.20 in Calm     69% 0.00 in 181.00 W/m2
16:38 61.2 °F 51.3 °F 30.20 in Calm     70% 0.00 in 134.00 W/m2
16:43 61.1 °F 52.4 °F 30.20 in Calm     73% 0.00 in 111.00 W/m2
16:48 60.9 °F 51.8 °F 30.20 in Calm     72% 0.00 in 114.00 W/m2
16:53 60.7 °F 52.0 °F 30.20 in Calm     73% 0.00 in 111.00 W/m2
16:58 60.5 °F 52.2 °F 30.20 in Calm     74% 0.00 in 105.00 W/m2
17:03 60.3 °F 52.0 °F 30.20 in Calm     74% 0.00 in 95.00 W/m2
17:08 60.2 °F 52.3 °F 30.20 in Calm     75% 0.00 in 83.00 W/m2
17:13 60.0 °F 52.1 °F 30.20 in Calm     75% 0.00 in 74.00 W/m2
17:18 59.9 °F 52.0 °F 30.20 in Calm     75% 0.00 in 65.00 W/m2
17:23 59.6 °F 52.0 °F 30.20 in Calm     76% 0.00 in 62.00 W/m2
17:28 59.5 °F 51.9 °F 30.20 in Calm     76% 0.00 in 53.00 W/m2
17:33 59.4 °F 52.2 °F 30.20 in Calm     77% 0.00 in 40.00 W/m2
17:38 59.2 °F 52.3 °F 30.20 in Calm     78% 0.00 in 28.00 W/m2
17:43 59.0 °F 52.2 °F 30.20 in Calm     78% 0.00 in 23.00 W/m2
17:48 58.8 °F 52.0 °F 30.20 in Calm     78% 0.00 in 19.00 W/m2
17:53 58.6 °F 51.8 °F 30.20 in Calm     78% 0.00 in 12.00 W/m2
17:58 58.3 °F 51.5 °F 30.20 in Calm     78% 0.00 in 7.00 W/m2
18:03 58.0 °F 51.5 °F 30.20 in Calm     79% 0.00 in 0.00 W/m2
18:08 57.5 °F 51.7 °F 30.20 in Calm     81% 0.00 in 0.00 W/m2
18:13 57.2 °F 51.4 °F 30.20 in Calm     81% 0.00 in 0.00 W/m2
18:18 56.7 °F 50.9 °F 30.20 in Calm     81% 0.00 in 0.00 W/m2
18:23 56.3 °F 50.9 °F 30.20 in Calm     82% 0.00 in 0.00 W/m2
18:28 55.8 °F 50.7 °F 30.20 in Calm     83% 0.00 in 0.00 W/m2
18:33 55.4 °F 50.3 °F 30.20 in Calm     83% 0.00 in 0.00 W/m2
18:38 55.1 °F 50.0 °F 30.20 in Calm     83% 0.00 in 0.00 W/m2
18:43 54.7 °F 50.0 °F 30.21 in Calm     84% 0.00 in 0.00 W/m2
18:48 54.5 °F 49.8 °F 30.21 in Calm     84% 0.00 in 0.00 W/m2
18:53 54.3 °F 49.6 °F 30.21 in Calm     84% 0.00 in 0.00 W/m2
18:58 54.2 °F 49.5 °F 30.21 in Calm     84% 0.00 in 0.00 W/m2
19:03 54.1 °F 49.4 °F 30.21 in Calm     84% 0.00 in 0.00 W/m2
19:08 54.1 °F 49.7 °F 30.21 in Calm     85% 0.00 in 0.00 W/m2
19:13 54.0 °F 49.6 °F 30.21 in Calm     85% 0.00 in 0.00 W/m2
19:18 54.0 °F 49.6 °F 30.21 in Calm     85% 0.00 in 0.00 W/m2
19:23 54.0 °F 49.6 °F 30.21 in Calm     85% 0.00 in 0.00 W/m2
19:28 53.9 °F 49.5 °F 30.22 in Calm     85% 0.00 in 0.00 W/m2
19:33 53.9 °F 49.5 °F 30.22 in Calm     85% 0.00 in 0.00 W/m2
19:38 53.7 °F 49.3 °F 30.22 in Calm     85% 0.00 in 0.00 W/m2
19:43 53.6 °F 49.5 °F 30.22 in Calm     86% 0.00 in 0.00 W/m2
19:48 53.5 °F 49.4 °F 30.22 in Calm     86% 0.00 in 0.00 W/m2
19:53 53.4 °F 49.3 °F 30.22 in Calm     86% 0.00 in 0.00 W/m2
19:58 53.3 °F 49.2 °F 30.22 in Calm     86% 0.00 in 0.00 W/m2
20:03 53.2 °F 49.4 °F 30.22 in Calm     87% 0.00 in 0.00 W/m2
20:08 53.1 °F 49.0 °F 30.22 in Calm     86% 0.00 in 0.00 W/m2
20:13 53.0 °F 49.2 °F 30.22 in Calm     87% 0.00 in 0.00 W/m2
20:18 52.9 °F 49.1 °F 30.22 in Calm     87% 0.00 in 0.00 W/m2
20:23 52.8 °F 49.0 °F 30.22 in Calm     87% 0.00 in 0.00 W/m2
20:28 52.7 °F 49.0 °F 30.22 in Calm     87% 0.00 in 0.00 W/m2
20:29 52.7 °F 49.0 °F 30.22 in Calm     87% 0.00 in 0.00 W/m2
20:34 52.6 °F 48.8 °F 30.22 in Calm     87% 0.00 in 0.00 W/m2
20:39 52.6 °F 48.8 °F 30.23 in Calm     87% 0.00 in 0.00 W/m2
20:44 52.5 °F 49.0 °F 30.22 in Calm     88% 0.00 in 0.00 W/m2
20:49 52.5 °F 49.0 °F 30.22 in Calm   1.0 mph 88% 0.00 in 0.00 W/m2
20:54 52.4 °F 49.0 °F 30.22 in Calm     88% 0.00 in 0.00 W/m2
20:59 52.4 °F 49.0 °F 30.22 in Calm     88% 0.00 in 0.00 W/m2
21:04 52.4 °F 49.0 °F 30.23 in Calm     88% 0.00 in 0.00 W/m2
21:09 52.4 °F 49.0 °F 30.23 in Calm     88% 0.00 in 0.00 W/m2
21:14 52.3 °F 48.9 °F 30.22 in Calm   6.0 mph 88% 0.00 in 0.00 W/m2
21:19 52.4 °F 49.0 °F 30.23 in Calm   5.0 mph 88% 0.00 in 0.00 W/m2
21:24 52.3 °F 48.9 °F 30.23 in Calm   5.0 mph 88% 0.00 in 0.00 W/m2
21:29 52.3 °F 48.9 °F 30.22 in East 1.0 mph 7.0 mph 88% 0.00 in 0.00 W/m2
21:34 52.2 °F 48.8 °F 30.22 in East 1.0 mph 7.0 mph 88% 0.00 in 0.00 W/m2
21:39 52.2 °F 48.8 °F 30.21 in East 5.0 mph 8.0 mph 88% 0.00 in 0.00 W/m2
21:44 52.1 °F 48.7 °F 30.21 in East 2.0 mph 5.0 mph 88% 0.00 in 0.00 W/m2
21:49 52.1 °F 48.4 °F 30.22 in Calm   8.0 mph 87% 0.00 in 0.00 W/m2
21:54 52.0 °F 48.3 °F 30.22 in ESE 4.0 mph 7.0 mph 87% 0.00 in 0.00 W/m2
21:59 52.0 °F 48.3 °F 30.23 in ESE 2.0 mph 8.0 mph 87% 0.00 in 0.00 W/m2
22:00 52.0 °F 48.3 °F 30.22 in Calm   8.0 mph 87% 0.00 in 0.00 W/m2
22:05 52.0 °F 48.0 °F 30.22 in Calm   12.0 mph 86% 0.00 in 0.00 W/m2
22:10 52.0 °F 48.0 °F 30.22 in Calm   6.0 mph 86% 0.00 in 0.00 W/m2
22:15 52.0 °F 48.0 °F 30.22 in Calm   7.0 mph 86% 0.00 in 0.00 W/m2
22:20 52.0 °F 48.0 °F 30.22 in East 1.0 mph 5.0 mph 86% 0.00 in 0.00 W/m2
22:25 52.0 °F 48.0 °F 30.22 in Calm   6.0 mph 86% 0.00 in 0.00 W/m2
22:30 51.9 °F 47.5 °F 30.22 in ESE 2.0 mph 8.0 mph 85% 0.00 in 0.00 W/m2
22:35 51.9 °F 47.5 °F 30.22 in Calm   6.0 mph 85% 0.00 in 0.00 W/m2
22:40 51.9 °F 47.5 °F 30.21 in Calm   7.0 mph 85% 0.00 in 0.00 W/m2
22:45 51.9 °F 47.5 °F 30.21 in Calm   7.0 mph 85% 0.00 in 0.00 W/m2
22:50 51.8 °F 47.4 °F 30.22 in Calm   6.0 mph 85% 0.00 in 0.00 W/m2
22:55 51.7 °F 47.3 °F 30.22 in Calm   5.0 mph 85% 0.00 in 0.00 W/m2
23:01 51.7 °F 47.3 °F 30.22 in Calm   5.0 mph 85% 0.00 in 0.00 W/m2
23:06 51.7 °F 47.0 °F 30.22 in East 1.0 mph 4.0 mph 84% 0.00 in 0.00 W/m2
23:11 51.7 °F 47.0 °F 30.22 in Calm   4.0 mph 84% 0.00 in 0.00 W/m2
23:16 51.6 °F 47.2 °F 30.22 in Calm   4.0 mph 85% 0.00 in 0.00 W/m2
23:21 51.5 °F 47.2 °F 30.22 in Calm   4.0 mph 85% 0.00 in 0.00 W/m2
23:26 51.4 °F 47.0 °F 30.22 in Calm   2.0 mph 85% 0.00 in 0.00 W/m2
23:31 51.3 °F 47.0 °F 30.22 in Calm   4.0 mph 85% 0.00 in 0.00 W/m2
23:36 51.2 °F 46.8 °F 30.22 in East 1.0 mph 2.0 mph 85% 0.00 in 0.00 W/m2
23:41 51.2 °F 46.8 °F 30.22 in East 1.0 mph 2.0 mph 85% 0.00 in 0.00 W/m2
23:46 51.1 °F 46.8 °F 30.22 in East 1.0 mph 2.0 mph 85% 0.00 in 0.00 W/m2
23:51 51.0 °F 46.7 °F 30.22 in East 1.0 mph 2.0 mph 85% 0.00 in 0.00 W/m2
23:56 51.0 °F 46.7 °F 30.21 in Calm   4.0 mph 85% 0.00 in 0.00 W/m2
Foresthill Weather
 WU-history PHP script courtesy of   Juneau County Weather.
powered by Cumulus v1.9.3 (1059)
Ambient Weather VWS v14.00
Top Contact Website Map Copyright © 2007 - 2018 Foresthillweather.com Never base important decisions on this or any weather information obtained from the Internet